CAPE
0 0 0 0 0 0 0 0 0 0 0 0 0 0 0 0 0 0 0 0 0 0 0 0 0 0 0 0 0 0 0 0 0 0 0 0 0 0 0 0 0 0 0 0
0 0 0 0 0 0 0 0 0 0 0 0 0 0 0 0 0 0 0 0 0 0 0 0 0 0 0 0 0 0 0 0 0 0 0 0 0 0 0 0 0 0 0 0
0 0 0 0 0 0 0 0 0 0 0 0 0 0 0 0 0 0 0 0 0 0 0 0 0 0 0 0 0 0 0 0 0 0 0 0 0 0 0 0 0 0 0 0
0 0 0 0 0 0 0 0 0 0 0 0 0 0 0 0 0 0 0 0 0 0 0 0 0 0 0 0 0 0 0 0 0 0 0 0 0 0 0 0 0 0 0 0
0 0 0 0 0 0 0 0 0 0 0 0 0 0 0 0 0 0 0 0 0 0 0 0 0 0 0 0 0 0 0 0 0 0 0 0 0 0 0 0 0 0 0 0
0 0 0 0 0 0 0 0 0 0 0 0 0 0 0 0 0 0 0 0 0 0 0 0 0 0 0 0 0 0 0 0 0 0 0 0 0 0 0 0 0 0 0 0
0 0 0 0 0 0 0 0 0 0 0 0 0 0 0 0 0 0 0 0 0 0 0 0 0 0 0 0 0 0 0 0 0 0 0 0 0 0 0 0 0 0 0 0
0 0 0 0 0 0 0 0 0 0 0 0 0 0 0 0 0 0 0 0 0 0 0 0 0 0 0 0 0 0 0 0 0 0 0 0 0 0 0 0 0 0 0 0
0 0 0 0 0 0 0 0 0 0 0 0 0 0 0 0 0 0 0 0 0 0 0 0 0 0 0 0 0 0 0 0 0 0 0 0 0 0 0 0 0 0 0 0
0 0 0 0 0 0 0 0 0 0 0 0 0 0 0 0 0 0 0 0 0 0 0 0 0 0 0 0 0 0 0 0 0 0 0 0 0 0 0 0 0 0 0 0
0 0 0 0 0 0 0 0 0 0 0 0 0 0 0 0 0 0 0 0 0 0 0 0 0 0 0 0 0 0 0 0 0 0 0 0 0 0 0 0 0 0 0 0
0 0 0 0 0 0 0 0 0 0 0 0 0 0 0 0 0 0 0 0 0 0 0 0 0 0 0 0 0 0 0 0 0 0 0 0 0 0 0 0 0 0 0 0
0 0 0 0 0 0 0 0 0 0 0 0 0 0 0 0 0 0 0 0 0 0 0 0 0 0 0 0 0 0 0 0 0 0 0 0 0 0 0 0 0 0 0 0
0 0 0 0 0 0 0 0 0 0 0 0 0 0 0 0 0 0 0 0 0 0 0 0 0 0 0 0 0 0 0 0 0 0 0 0 0 0 0 0 0 0 0 0
0 0 0 0 0 0 0 0 0 0 0 0 0 0 0 0 0 0 0 0 0 0 0 0 0 0 0 0 0 0 0 0 0 0 0 0 0 0 0 0 0 0 0 0
0 0 0 0 0 0 0 0 0 0 0 0 0 0 0 0 0 0 0 0 0 0 0 0 0 0 0 0 0 0 0 0 0 0 0 0 0 0 0 0 0 0 0 0
0 0 0 0 0 0 0 0 0 0 0 0 0 0 0 0 0 0 0 0 0 0 0 0 0 0 0 0 0 0 0 0 0 0 0 0 0 0 0 0 0 0 0 0
0 0 0 0 0 0 0 0 0 0 0 0 0 0 0 0 0 0 0 0 0 0 0 0 0 0 0 0 0 0 0 0 0 0 0 0 0 0 0 0 0 0 0 0
0 0 0 0 0 0 0 0 0 0 0 0 0 0 0 0 0 0 0 0 0 0 0 0 0 0 0 0 0 0 0 0 0 0 0 0 0 0 0 0 0 0 0 0
0 0 0 0 0 0 0 0 0 0 0 0 0 0 0 0 0 0 0 0 0 0 0 0 0 0 0 0 0 0 0 0 0 0 0 0 0 0 0 0 0 0 0 0
0 0 0 0 0 0 0 0 0 0 0 0 0 0 0 0 0 0 0 0 0 0 0 0 0 0 0 0 0 0 0 0 0 0 0 0 0 0 0 0 0 0 0 0
0 0 0 0 0 0 0 0 0 0 0 0 0 0 0 0 0 0 0 0 0 0 0 0 0 0 0 0 0 0 0 0 0 0 0 0 0 0 0 0 0 0 0 0
0 0 0 0 0 0 0 0 0 0 0 0 0 0 0 0 0 0 0 0 0 0 0 0 0 0 0 0 0 0 0 0 0 0 0 0 0 0 0 0 0 0 0 0
0 0 0 0 0 0 0 0 0 0 0 0 0 0 0 0 0 0 0 0 0 0 0 0 0 0 0 0 0 0 0 0 0 0 0 0 0 0 0 0 0 0 0 0
0 0 0 0 0 0 0 0 0 0 0 0 0 0 0 0 0 0 0 0 0 0 0 0 0 0 0 0 0 0 0 0 0 0 0 0 0 0 0 0 0 0 0 0
0 0 0 0 0 0 0 0 0 0 0 0 0 0 0 0 0 0 0 0 0 0 0 0 0 0 0 0 0 0 0 0 0 0 0 0 0 0 0 0 0 0 0 0
CIN
0 0 0 0 0 0 0 0 0 0 0 0 0 0 0 0 0 0 0 0 0 0 0 0 0 0 0 0 0 0 0 0 0 0 0 0 0 0 0 0 0 0 0 0
0 0 0 0 0 0 0 0 0 0 0 0 0 0 0 0 0 0 0 0 0 0 0 0 0 0 0 0 0 0 0 0 0 0 0 0 0 0 0 0 0 0 0 0
0 0 0 0 0 0 0 0 0 0 0 0 0 0 0 0 0 0 0 0 0 0 0 0 0 0 0 0 0 0 0 0 0 0 0 0 0 0 0 0 0 0 0 0
0 0 0 0 0 0 0 0 0 0 0 0 0 0 0 0 0 0 0 0 0 0 0 0 0 0 0 0 0 0 0 0 0 0 0 0 0 0 0 0 0 0 0 0
0 0 0 0 0 0 0 0 0 0 0 0 0 0 0 0 0 0 0 0 0 0 0 0 0 0 0 0 0 0 0 0 0 0 0 0 0 0 0 0 0 0 0 0
0 0 0 0 0 0 0 0 0 0 0 0 0 0 0 0 0 0 0 0 0 0 0 0 0 0 0 0 0 0 0 0 0 0 0 0 0 0 0 0 0 0 0 0
0 0 0 0 0 0 0 0 0 0 0 0 0 0 0 0 0 0 0 0 0 0 0 0 0 0 0 0 0 0 0 0 0 0 0 0 0 0 0 0 0 0 0 0
0 0 0 0 0 0 0 0 0 0 0 0 0 0 0 0 0 0 0 0 0 0 0 0 0 0 0 0 0 0 0 0 0 0 0 0 0 0 0 0 0 0 0 0
0 0 0 0 0 0 0 0 0 0 0 0 0 0 0 0 0 0 0 0 0 0 0 0 0 0 0 0 0 0 0 0 0 0 0 0 0 0 0 0 0 0 0 0
0 0 0 0 0 0 0 0 0 0 0 0 0 0 0 0 0 0 0 0 0 0 0 0 0 0 0 0 0 0 0 0 0 0 0 0 0 0 0 0 0 0 0 0
0 0 0 0 0 0 0 0 0 0 0 0 0 0 0 0 0 0 0 0 0 0 0 0 0 0 0 0 0 0 0 0 0 0 0 0 0 0 0 0 0 0 0 0
0 0 0 0 0 0 0 0 0 0 0 0 0 0 0 0 0 0 0 0 0 0 0 0 0 0 0 0 0 0 0 0 0 0 0 0 0 0 0 0 0 0 0 0
0 0 0 0 0 0 0 0 0 0 0 0 0 0 0 0 0 0 0 0 0 0 0 0 0 0 0 0 0 0 0 0 0 0 0 0 0 0 0 0 0 0 0 0
0 0 0 0 0 0 0 0 0 0 0 0 0 0 0 0 0 0 0 0 0 0 0 0 0 0 0 0 0 0 0 0 0 0 0 0 0 0 0 0 0 0 0 0
0 0 0 0 0 0 0 0 0 0 0 0 0 0 0 0 0 0 0 0 0 0 0 0 0 0 0 0 0 0 0 0 0 0 0 0 0 0 0 0 0 0 0 0
0 0 0 0 0 0 0 0 0 0 0 0 0 0 0 0 0 0 0 0 0 0 0 0 0 0 0 0 0 0 0 0 0 0 0 0 0 0 0 0 0 0 0 0
0 0 0 0 0 0 0 0 0 0 0 0 0 0 0 0 0 0 0 0 0 0 0 0 0 0 0 0 0 0 0 0 0 0 0 0 0 0 0 0 0 0 0 0
0 0 0 0 0 0 0 0 0 0 0 0 0 0 0 0 0 0 0 0 0 0 0 0 0 0 0 0 0 0 0 0 0 0 0 0 0 0 0 0 0 0 0 0
0 0 0 0 0 0 0 0 0 0 0 0 0 0 0 0 0 0 0 0 0 0 0 0 0 0 0 0 0 0 0 0 0 0 0 0 0 0 0 0 0 0 0 0
0 0 0 0 0 0 0 0 0 0 0 0 0 0 0 0 0 0 0 0 0 0 0 0 0 0 0 0 0 0 0 0 0 0 0 0 0 0 0 0 0 0 0 0
0 0 0 0 0 0 0 0 0 0 0 0 0 0 0 0 0 0 0 0 0 0 0 0 0 0 0 0 0 0 0 0 0 0 0 0 0 0 0 0 0 0 0 0
0 0 0 0 0 0 0 0 0 0 0 0 0 0 0 0 0 0 0 0 0 0 0 0 0 0 0 0 0 0 0 0 0 0 0 0 0 0 0 0 0 0 0 0
0 0 0 0 0 0 0 0 0 0 0 0 0 0 0 0 0 0 0 0 0 0 0 0 0 0 0 0 0 0 0 0 0 0 0 0 0 0 0 0 0 0 0 0
0 0 0 0 0 0 0 0 0 0 0 0 0 0 0 0 0 0 0 0 0 0 0 0 0 0 0 0 0 0 0 0 0 0 0 0 0 0 0 0 0 0 0 0
0 0 0 0 0 0 0 0 0 0 0 0 0 0 0 0 0 0 0 0 0 0 0 0 0 0 0 0 0 0 0 0 0 0 0 0 0 0 0 0 0 0 0 0
0 0 0 0 0 0 0 0 0 0 0 0 0 0 0 0 0 0 0 0 0 0 0 0 0 0 0 0 0 0 0 0 0 0 0 0 0 0 0 0 0 0 0 0
Wind_Speed
29 35 39 33 29 31 31 32 32 28 26 29 32 33 30 33 31 30 28 26 25 24 22 23 23 21 18 15 12 13 13 16 18 21 24 26 28 28 29 29 28 27 28 28
34 45 35 32 30 32 33 35 35 32 28 30 35 39 34 32 29 26 25 24 23 22 22 22 22 20 17 14 13 13 15 16 18 20 22 24 26 28 28 27 26 27 28 28
39 36 30 32 32 34 34 34 33 34 29 29 35 42 32 27 25 23 21 21 21 21 21 21 21 20 18 16 15 14 15 17 19 22 23 25 25 25 26 26 27 28 28 28
39 37 32 29 33 29 37 29 31 30 31 37 26 43 29 24 22 21 20 19 19 19 20 21 22 21 19 18 16 16 17 19 21 22 25 26 28 30 28 27 27 29 28 27
35 33 34 35 31 23 31 22 24 26 29 33 31 34 32 25 25 21 19 17 16 19 22 23 23 21 19 17 17 17 18 19 20 22 24 26 28 28 28 28 28 28 27 25
34 28 27 30 28 25 18 21 22 24 27 38 31 29 35 27 26 20 17 15 16 21 22 23 23 20 19 18 18 17 17 18 20 21 23 25 26 27 27 28 26 27 26 24
34 33 29 23 22 20 23 22 31 34 33 37 26 28 32 24 20 17 13 14 17 20 21 22 23 22 21 19 18 18 16 16 16 18 22 23 24 24 25 25 24 26 25 24
41 44 33 29 29 27 25 26 30 37 36 33 24 32 29 21 16 15 15 15 17 19 21 23 23 22 21 20 19 19 16 15 15 15 18 20 21 22 23 23 25 25 24 24
40 43 31 31 28 24 28 32 25 27 27 32 28 29 27 18 17 16 15 15 16 18 21 23 23 22 21 22 21 20 18 16 15 13 13 13 17 22 25 25 23 24 25 25
31 37 29 27 23 28 28 20 27 25 33 36 30 31 26 15 13 13 14 13 15 18 21 23 23 23 21 23 21 20 19 16 18 18 12 13 15 21 23 25 27 25 24 25
26 30 28 23 31 31 25 27 25 23 27 31 34 29 17 17 12 10 12 13 15 18 21 23 23 23 23 22 22 20 19 18 18 19 15 17 14 20 26 27 24 24 25 25
24 24 32 30 25 25 27 28 26 30 31 29 29 31 20 22 14 11 11 15 18 20 21 23 24 24 23 23 24 25 23 18 16 17 18 19 22 24 25 26 25 24 25 23
25 27 27 28 28 26 30 26 25 23 23 28 29 26 21 16 14 14 15 18 20 20 22 24 25 25 23 23 24 26 25 23 21 16 20 24 25 25 25 25 24 24 22 22
18 27 32 32 27 22 28 28 24 25 30 28 30 32 23 18 16 17 18 21 22 22 23 26 27 25 22 23 24 26 26 24 23 22 21 25 27 25 24 22 21 22 21 22
23 32 31 26 22 25 24 25 23 26 28 30 35 31 26 21 18 17 19 24 25 26 26 27 27 25 22 24 25 25 26 26 24 25 24 25 26 25 23 22 23 22 21 22
22 24 24 27 25 26 29 25 25 28 33 38 38 39 24 21 20 23 22 23 26 25 26 27 26 25 23 24 27 27 27 27 26 26 27 28 26 25 26 26 25 24 25 24
23 24 27 32 28 29 39 34 28 27 26 27 32 30 22 23 22 22 20 21 23 23 24 25 25 25 26 25 26 28 29 28 27 28 27 28 27 27 28 29 27 27 27 25
25 24 25 30 25 36 30 24 25 31 32 29 30 25 22 21 20 19 18 18 19 21 24 24 25 26 26 26 27 28 27 28 27 27 28 28 29 30 31 31 31 31 30 29
23 25 28 33 35 36 32 27 25 26 32 26 26 26 20 19 19 21 15 17 19 21 22 24 24 25 26 27 28 27 27 27 28 29 30 31 32 33 34 35 35 34 34 34
22 22 29 30 35 37 29 23 18 19 33 24 23 19 17 16 25 22 13 16 19 20 21 23 24 24 25 26 27 27 27 27 29 31 32 32 33 34 35 36 36 36 35 36
25 27 31 31 34 33 25 17 13 25 26 20 18 14 12 17 19 16 14 16 17 18 20 21 23 24 25 26 27 26 27 27 29 31 32 32 33 34 35 36 35 36 37 37
22 25 26 27 32 37 16 15 23 21 16 16 16 14 12 14 15 15 15 15 17 19 20 22 23 24 24 25 26 27 27 29 30 30 31 32 33 33 33 35 36 36 36 37
24 22 22 20 21 19 16 18 16 16 17 17 16 14 13 13 14 13 14 14 16 19 20 22 24 25 25 26 26 28 29 29 30 31 31 31 31 32 33 34 35 35 35 36
22 21 23 22 22 24 22 19 19 16 17 15 15 12 11 12 11 12 13 15 18 19 21 23 24 26 26 27 27 28 29 29 30 30 30 30 31 32 32 32 32 32 33 34
20 16 21 25 27 25 26 22 20 18 18 15 13 12 11 10 11 12 14 16 18 20 21 23 25 26 27 28 28 28 28 29 30 30 30 30 30 31 32 31 31 31 31 31
19 20 22 25 21 22 25 24 18 16 15 12 11 11 10 10 10 12 14 15 17 20 22 24 25 26 27 28 28 28 28 29 30 30 30 31 31 32 32 32 33 31 30 31
Wind_Direction
268 266 261 266 267 279 281 282 285 291 297 295 291 291 293 296 299 301 305 309 313 319 327 331 333 331 326 319 309 303 302 305 307 308 308 308 307 307 305 305 304 304 304 305
265 263 267 271 270 271 277 280 282 290 294 294 293 291 294 294 296 299 303 307 313 319 325 331 334 335 335 331 322 315 310 310 311 312 312 312 311 309 307 306 305 305 304 304
258 270 269 262 268 268 271 274 281 286 294 296 296 292 294 295 296 298 303 309 314 319 322 325 327 331 333 332 327 321 316 313 312 311 311 311 312 311 310 308 304 303 303 303
264 266 269 266 263 264 271 277 281 284 288 287 300 290 296 298 298 298 300 307 314 321 325 326 325 326 328 328 327 323 317 313 312 310 308 307 305 303 306 307 306 303 302 301
264 268 261 262 268 262 274 281 282 286 286 290 289 292 296 299 296 293 296 305 312 318 320 320 323 327 331 332 330 327 323 319 316 313 310 307 305 305 305 304 304 301 300 299
266 276 271 268 270 264 267 278 287 290 289 283 284 284 293 297 300 298 297 303 311 316 320 323 326 333 335 336 332 329 325 321 318 315 312 309 308 307 306 303 305 300 297 296
264 265 270 269 266 263 263 266 277 280 278 281 291 287 289 304 309 305 296 304 313 318 322 326 329 332 334 336 333 331 331 327 324 320 315 315 311 310 307 304 305 297 293 291
257 262 256 260 262 264 258 263 271 276 278 284 290 287 297 305 301 308 307 309 314 319 323 327 331 333 336 336 338 333 334 332 331 328 323 321 318 312 308 305 297 295 292 290
260 262 264 261 263 260 263 263 271 279 287 287 288 294 299 302 301 298 302 308 315 320 326 331 336 340 341 337 338 335 335 337 334 336 335 332 325 311 302 297 298 292 287 288
263 265 265 265 265 263 265 263 266 270 277 280 289 292 293 300 289 294 299 307 314 320 327 333 338 340 342 340 339 337 336 338 335 329 340 336 329 311 301 291 280 287 288 281
257 263 266 262 259 256 260 260 267 270 275 282 288 293 304 302 289 290 299 308 313 319 325 332 338 341 340 343 339 337 335 336 337 330 338 328 335 312 286 277 287 283 273 276
254 265 259 260 270 265 262 262 260 266 275 281 285 287 301 300 300 297 303 310 314 318 324 330 335 338 339 341 334 328 329 335 338 334 329 321 306 293 277 267 270 276 277 288
247 259 258 262 267 266 260 259 260 272 280 277 279 289 303 305 301 300 304 310 313 316 321 327 332 334 334 336 331 323 323 326 326 335 318 297 285 280 276 276 285 285 294 295
254 259 256 256 269 266 258 255 255 262 271 275 276 285 292 292 293 296 302 308 310 313 317 321 326 333 333 330 329 323 320 326 321 313 312 290 278 283 287 297 299 295 299 296
259 258 257 265 272 267 269 264 254 256 269 274 284 280 285 286 289 293 303 306 308 310 313 316 320 325 331 326 324 322 318 319 320 303 299 295 289 291 298 304 299 298 303 300
257 264 259 259 267 266 269 272 270 269 271 273 277 279 290 301 297 297 299 303 305 311 314 315 317 319 323 325 320 317 315 312 313 304 293 289 293 296 295 295 295 299 298 298
258 262 262 259 271 272 268 267 269 274 276 276 275 284 290 294 296 301 302 305 309 313 319 319 319 318 317 320 321 315 311 310 308 302 300 295 295 296 294 292 297 298 297 301
259 264 268 266 274 267 275 286 282 275 279 274 282 288 290 295 301 307 309 309 314 315 319 320 320 319 318 319 318 316 314 309 309 305 302 299 298 296 294 293 295 294 295 297
270 264 266 264 264 273 278 283 286 282 282 283 279 281 291 296 302 304 310 315 316 318 322 322 322 321 321 320 319 319 316 312 307 305 302 299 296 296 295 292 293 296 295 294
270 270 264 266 267 269 280 294 297 296 283 297 291 286 281 292 292 300 313 317 320 323 325 324 324 326 324 323 323 321 320 316 310 306 303 302 299 297 296 297 296 297 297 296
264 264 261 265 269 278 286 300 304 284 290 309 307 296 284 289 301 314 322 322 326 331 330 331 330 328 327 327 325 323 322 320 316 312 307 305 304 302 300 299 300 299 298 298
268 262 266 269 271 274 295 293 283 298 308 311 313 312 304 304 311 315 322 326 328 330 330 330 329 330 331 330 327 324 323 323 321 318 315 311 308 308 307 304 303 302 302 301
271 270 277 277 287 295 299 297 298 302 303 307 311 314 313 311 311 317 322 327 329 331 333 333 332 331 332 331 329 325 324 324 323 321 320 318 316 314 312 310 309 307 307 305
278 280 280 287 289 285 290 291 299 304 306 312 313 316 317 317 321 323 328 330 331 332 332 332 331 330 329 328 328 327 327 327 326 325 324 322 320 318 318 318 317 314 312 311
287 292 285 284 286 291 291 294 296 296 301 308 315 316 316 322 324 328 330 330 332 332 333 332 331 329 328 328 328 329 330 330 328 327 326 325 325 324 323 324 321 319 319 317
287 287 286 287 298 298 297 298 299 297 295 302 309 315 319 321 326 327 329 332 333 333 333 332 331 330 328 328 330 332 332 331 330 328 326 325 324 324 324 324 323 325 325 324